Augusta Bush, GA

1:22 AM EDT on June 28, 2017 (GMT -0400)
Augusta Regional At Bush

Weather History for KAGS - May, 2013

Change the Weather History Date:

Tuesday, May 21, 2013

  Actual Average Record
Temperature  
Mean Temperature 77 °F 73 °F  
Max Temperature 90 °F 86 °F 97 °F (1996)
Min Temperature 63 °F 59 °F 42 °F (1994)
Degree Days  
Heating Degree Days 0 0  
Month to date heating degree days 34 18  
Since 1 July heating degree days 2385 2470  
Cooling Degree Days 12 8  
Month to date cooling degree days 81 116  
Year to date cooling degree days 144 189  
Growing Degree Days 27 (Base 50)    
Moisture  
Dew Point 67 °F    
Average Humidity 74    
Maximum Humidity 100    
Minimum Humidity 47    
Precipitation  
Precipitation 0.33 in 0.08 in 1.60 in (1942)
Month to date precipitation 2.22 1.59  
Year to date precipitation 19.56 16.44  
Sea Level Pressure  
Sea Level Pressure 30.01 in    
Wind  
Wind Speed 3 mph (SE)    
Max Wind Speed 33 mph    
Max Gust Speed 45 mph    
Visibility 5 miles    
Events Fog , Rain , Thunderstorm    
T = Trace of Precipitation, MM = Missing Value Source: NWS Daily Summary

Daily Weather History Graph

Daily Weather History Graph

Search for Another Location

Airport or City:

Trip Planner

Search our weather history database for the weather conditions in past years. The results will help you decide how hot, cold, wet, or windy it might be!

Date:

Astronomy

May. 21, 2013 Rise Set
Actual Time 6:23 AM EDT 8:25 PM EDT
Civil Twilight 5:55 AM EDT 8:53 PM EDT
Nautical Twilight 5:22 AM EDT 9:27 PM EDT
Astronomical Twilight 4:46 AM EDT 10:03 PM EDT
Moon 4:47 PM EDT (5/21) 3:39 AM EDT (5/21)
Length of Visible Light 14h 57m
Length of Day
14h 01m
Waxing Gibbous, 84% of the Moon is Illuminated
May 21
Waxing Gibbous
May 25
Full
May 31
Last Quarter
Jun 8
New
Jun 16
First Quarter

Hourly Weather History & Observations

Time (EDT) Temp. Heat Index Dew Point Humidity Pressure Visibility Wind Dir Wind Speed Gust Speed Precip Events Conditions
12:53 AM 69.1 °F - 66.9 °F 93% 30.02 in 10.0 mi Calm Calm - N/A   Clear
1:53 AM 66.9 °F - 64.9 °F 93% 30.01 in 10.0 mi Calm Calm - N/A   Clear
2:53 AM 66.0 °F - 64.9 °F 96% 30.01 in 6.0 mi Calm Calm - N/A   Clear
3:43 AM 64.4 °F - 64.4 °F 100% 30.01 in 1.5 mi Calm Calm - N/A   Clear
3:45 AM 64.4 °F - 64.4 °F 100% 30.01 in 0.8 mi Calm Calm - N/A   Mist
3:53 AM 64.9 °F - 64.0 °F 97% 30.01 in 0.5 mi Calm Calm - N/A Fog Fog
4:02 AM 64.4 °F - 64.4 °F 100% 30.02 in 0.2 mi Calm Calm - N/A Fog Fog
4:12 AM 64.4 °F - 64.4 °F 100% 30.02 in 0.5 mi Calm Calm - N/A Fog Fog
4:22 AM 64.4 °F - 64.4 °F 100% 30.02 in 3.0 mi Calm Calm - N/A   Overcast
4:35 AM 64.4 °F - 64.4 °F 100% 30.02 in 1.5 mi Calm Calm - N/A   Overcast
4:44 AM 66.2 °F - 66.2 °F 100% 30.02 in 0.5 mi Calm Calm - N/A Fog Fog
4:53 AM 66.9 °F - 66.0 °F 97% 30.02 in 0.5 mi Calm Calm - N/A Fog Fog
5:04 AM 66.2 °F - 66.2 °F 100% 30.03 in 0.2 mi Calm Calm - N/A Fog Fog
5:25 AM 66.2 °F - 66.2 °F 100% 30.03 in 0.5 mi Calm Calm - N/A Fog Fog
5:43 AM 66.2 °F - 66.2 °F 100% 30.04 in 1.5 mi Calm Calm - N/A   Overcast
5:53 AM 66.9 °F - 66.9 °F 100% 30.03 in 0.8 mi Calm Calm - N/A   Mist
6:05 AM 66.2 °F - 66.2 °F 100% 30.04 in 1.0 mi SE 3.5 mph - N/A   Mist
6:13 AM 68.0 °F - 66.2 °F 94% 30.04 in 0.8 mi Calm Calm - N/A   Mist
6:53 AM 68.0 °F - 68.0 °F 100% 30.03 in 0.5 mi Calm Calm - N/A Fog Fog
7:23 AM 69.8 °F - 68.0 °F 94% 30.04 in 1.2 mi Calm Calm - N/A   Overcast
7:42 AM 69.8 °F - 69.8 °F 100% 30.04 in 2.0 mi SSE 3.5 mph - N/A   Overcast
7:53 AM 69.1 °F - 69.1 °F 100% 30.04 in 2.5 mi Calm Calm - N/A   Overcast
8:25 AM 69.8 °F - 69.8 °F 100% 30.05 in 1.8 mi Variable 3.5 mph - N/A   Overcast
8:30 AM 69.8 °F - 69.8 °F 100% 30.05 in 3.0 mi SSW 4.6 mph - N/A   Overcast
8:53 AM 70.0 °F - 69.1 °F 97% 30.05 in 3.0 mi Calm Calm - N/A   Overcast
9:41 AM 73.4 °F - 69.8 °F 88% 30.06 in 4.0 mi East 3.5 mph - N/A   Overcast
9:53 AM 75.0 °F - 70.0 °F 84% 30.06 in 6.0 mi ESE 3.5 mph - N/A   Haze
10:19 AM 77.0 °F - 69.8 °F 78% 30.06 in 7.0 mi Calm Calm - N/A   Scattered Clouds
10:53 AM 79.0 °F - 71.1 °F 77% 30.06 in 6.0 mi Calm Calm - N/A   Scattered Clouds
11:53 AM 82.9 °F 87.0 °F 70.0 °F 65% 30.05 in 10.0 mi NNE 3.5 mph - N/A   Scattered Clouds
12:53 PM 86.0 °F 90.7 °F 70.0 °F 59% 30.03 in 10.0 mi East 6.9 mph - N/A   Scattered Clouds
1:53 PM 86.0 °F 89.4 °F 68.0 °F 55% 30.00 in 10.0 mi West 4.6 mph - N/A   Partly Cloudy
2:53 PM 89.1 °F 91.3 °F 66.0 °F 46% 29.98 in 10.0 mi WSW 3.5 mph - N/A   Partly Cloudy
3:23 PM 89.6 °F 92.2 °F 66.2 °F 46% 29.96 in 10.0 mi SE 4.6 mph - N/A Thunderstorm Scattered Clouds
3:53 PM 88.0 °F 90.7 °F 66.9 °F 49% 29.95 in 10.0 mi ESE 10.4 mph - N/A Thunderstorm Mostly Cloudy
4:22 PM 75.2 °F - 60.8 °F 61% 29.99 in 10.0 mi ENE 21.9 mph 41.4 mph 0.00 in Thunderstorm Thunderstorm
4:31 PM 69.8 °F - 62.6 °F 78% 29.98 in 4.0 mi SE 20.7 mph 34.5 mph 0.00 in Rain , Thunderstorm Thunderstorms and Rain
4:53 PM 69.1 °F - 64.9 °F 87% 29.97 in 7.0 mi SSE 13.8 mph - 0.32 in Rain , Thunderstorm Light Thunderstorms and Rain
4:58 PM 69.8 °F - 64.4 °F 83% 29.98 in 10.0 mi South 10.4 mph - 0.00 in Rain , Thunderstorm Light Rain
5:45 PM 68.0 °F - 64.4 °F 88% 29.99 in 10.0 mi South 6.9 mph - 0.00 in   Mostly Cloudy
5:53 PM 68.0 °F - 64.9 °F 90% 29.99 in 10.0 mi South 4.6 mph - 0.00 in   Mostly Cloudy
6:53 PM 68.0 °F - 66.0 °F 93% 29.98 in 10.0 mi Calm Calm - N/A   Clear
7:53 PM 68.0 °F - 66.9 °F 96% 29.95 in 9.0 mi South 4.6 mph - 0.01 in   Partly Cloudy
8:53 PM 68.0 °F - 66.0 °F 93% 29.96 in 10.0 mi Calm Calm - N/A   Clear
9:53 PM 66.9 °F - 66.0 °F 97% 29.99 in 9.0 mi East 5.8 mph - N/A   Clear
10:53 PM 64.9 °F - 64.0 °F 97% 30.00 in 5.0 mi Calm Calm - N/A   Clear
11:53 PM 64.0 °F - 63.0 °F 96% 30.01 in 4.0 mi Calm Calm - N/A   Clear